Location: Unspecified
(42.3650°N, 71.1030°W)
Time: 00:47:57
(UTC+00:00)

Explorer 11/Cluster Stage 4 - Pass Details

Date: 30 June 2024
Orbit: 465 x 1215 km, 28.8° (Epoch: 17 July)

Event Time Altitude Azimuth Distance (km) Brightness Sun altitude
Rises 22:57:31 0° 242° (WSW) 3,628 10.7 13.7°
Reaches altitude 10° 23:00:24 10° 231° (SW) 2,797 9.9 13.2°
Maximum altitude 23:06:09 28° 176° (S) 1,972 8.5 12.2°
Drops below altitude 10° 23:12:29 10° 122° (ESE) 3,115 9.1 11.1°
Sets 23:15:54 0° 111° (ESE) 4,114 9.6 10.5°
